Wind_Speed
4 5 6 8 9 10 10 10 12 15 17 19 21 21 22 23 25 26 26 28 29 28 27 27 27 27 30 33 33 33 32 31 31 31 31 33 34 35 36 36 36 37 37 36 37 38 40 41 42 41 43 47 45 42 43 44 44 45 44 43 43 43 43 45 44 41 39 40 40 38 38 39 39 37 37 36 35 35 34 33 31 32 35 36 36
5 6 7 8 9 10 11 12 13 16 19 21 23 24 24 25 26 27 27 28 29 31 32 31 30 28 29 32 33 33 33 33 33 33 33 34 35 36 38 39 40 39 38 38 38 39 41 42 43 44 45 48 48 46 46 46 46 46 45 45 46 44 44 45 46 44 43 41 40 39 39 40 40 38 38 38 37 36 35 33 32 32 33 34 35
6 7 7 8 9 10 12 13 15 17 20 22 25 26 26 26 28 30 30 28 28 31 33 33 32 31 32 33 33 34 34 34 34 35 35 36 37 38 39 41 41 40 41 42 42 43 44 44 44 45 46 48 50 50 49 48 48 48 48 47 47 46 45 46 48 48 46 43 41 40 41 42 41 39 38 38 38 37 36 34 33 32 31 32 34
6 7 8 9 10 12 13 15 17 19 21 22 25 28 29 30 31 34 35 34 33 33 34 34 34 34 35 35 34 35 36 35 36 37 37 36 37 39 40 41 42 43 46 47 47 47 48 48 47 47 48 49 50 50 50 50 50 50 50 49 49 49 47 47 49 49 48 46 43 41 42 43 41 39 38 38 38 37 37 35 34 32 30 31 33
7 7 9 10 12 13 15 17 18 20 22 24 26 29 32 34 36 38 40 40 39 38 37 36 35 36 37 36 36 37 38 39 39 39 39 38 39 40 41 43 45 47 49 50 50 50 50 50 50 50 50 51 50 50 50 51 51 51 51 50 50 51 49 49 50 49 48 47 45 43 43 41 39 39 39 38 37 36 36 36 35 34 32 31 32
8 9 11 12 13 15 16 18 20 21 24 26 29 31 34 36 38 40 41 41 41 41 39 38 37 37 38 38 39 40 42 43 42 41 41 42 42 44 45 47 48 49 50 50 50 50 50 51 52 52 53 53 52 52 51 52 52 51 52 51 51 52 51 50 50 49 48 49 47 45 43 41 40 40 39 38 37 36 36 37 37 36 35 33 32
9 11 13 14 14 16 16 18 21 22 25 28 31 33 36 38 39 40 41 41 41 41 40 39 38 38 39 41 42 44 45 45 44 43 44 45 46 47 48 48 49 49 50 50 51 51 52 52 53 53 54 54 54 53 53 53 52 51 51 50 51 52 51 49 49 49 49 49 48 45 43 41 40 40 38 37 36 36 35 36 36 36 35 33 32
11 12 13 14 15 16 17 19 21 24 27 29 32 34 36 39 41 41 42 41 41 40 40 40 39 40 41 43 44 46 47 46 45 45 46 47 47 48 48 49 49 49 50 51 52 52 53 53 53 53 54 54 54 54 54 54 52 51 50 49 49 50 49 49 50 49 49 48 47 45 43 41 40 38 36 35 35 35 34 34 35 35 35 34 34
11 12 13 14 15 16 18 20 23 26 29 31 32 35 37 39 41 42 42 41 41 40 40 40 41 42 43 44 46 46 46 45 45 45 45 46 47 47 48 49 49 50 50 50 51 51 52 52 53 54 54 54 54 54 53 52 51 50 49 48 48 48 47 48 48 47 47 46 45 44 42 41 38 37 35 35 35 35 34 34 34 35 35 35 36
11 12 13 14 15 17 20 23 26 28 30 32 34 36 38 40 41 41 41 40 40 40 40 41 42 43 44 45 46 46 45 44 44 43 44 45 47 48 49 49 50 50 49 49 49 49 51 52 53 53 54 53 53 53 52 51 50 49 49 48 47 46 45 45 45 44 43 42 41 41 40 39 37 37 36 35 35 34 33 33 34 35 35 36 36
12 13 13 15 17 19 22 25 27 30 31 33 35 38 40 41 41 40 39 39 39 40 40 41 42 43 44 45 45 43 42 42 43 44 45 47 48 49 49 49 48 47 47 47 47 48 49 51 52 52 52 53 52 52 51 51 50 49 48 47 46 45 44 42 41 40 39 38 38 38 37 36 36 36 36 34 34 34 33 33 33 34 35 35 35
13 13 14 16 18 21 23 26 29 31 33 35 37 39 40 41 40 39 39 39 39 40 41 42 42 43 43 43 41 40 40 42 44 45 47 48 48 48 47 45 45 45 46 46 47 49 49 50 51 50 48 47 46 45 44 44 44 44 44 44 43 42 41 39 37 36 35 34 34 34 34 33 34 34 34 33 33 33 33 33 33 32 33 33 34
12 13 15 17 19 22 25 27 30 32 34 36 38 40 41 40 39 38 39 40 41 42 42 42 42 41 40 40 39 39 41 44 45 46 47 47 46 44 42 42 44 45 45 46 47 49 49 48 47 45 42 39 38 37 37 36 37 38 39 39 39 38 37 35 33 32 32 31 30 30 30 31 31 32 31 31 31 32 32 32 31 31 31 31 32
12 14 16 18 21 24 26 29 31 33 36 38 39 41 41 39 39 39 40 41 42 43 42 41 39 37 37 38 39 40 42 44 45 46 46 44 42 40 41 43 44 44 45 46 46 45 44 43 43 41 37 35 34 33 32 32 33 34 34 33 31 30 28 27 26 25 25 25 25 26 27 28 28 28 28 29 30 30 31 31 30 30 29 29 30
13 15 18 21 23 25 28 31 33 35 37 39 40 41 40 39 39 39 41 42 42 41 39 37 36 36 37 39 41 41 42 44 45 45 43 41 39 40 43 44 44 44 44 43 41 39 39 39 39 37 35 33 32 31 30 29 29 27 24 21 18 17 17 18 18 18 18 19 20 22 24 25 25 25 26 27 27 27 28 29 30 29 29 28 29
16 18 21 23 25 28 30 33 35 37 39 41 41 41 40 39 39 40 41 42 41 39 36 35 35 37 39 41 42 43 43 44 44 43 40 39 39 41 43 43 43 42 40 38 36 36 36 36 36 35 33 30 30 29 27 24 22 18 14 11 10 9 11 13 14 14 15 16 18 20 22 23 23 23 24 24 24 24 25 27 29 29 29 28 29
19 21 24 26 28 30 32 35 36 38 41 42 42 41 40 40 40 41 41 40 38 37 36 36 37 39 41 42 42 43 44 43 42 40 38 38 40 42 42 42 41 38 35 34 34 33 33 32 31 31 30 27 26 26 23 19 16 13 10 8 8 7 9 11 12 14 15 16 17 19 20 21 22 21 22 22 23 23 24 25 27 27 26 27 28
22 24 26 28 30 32 34 36 38 40 42 43 42 41 41 41 41 41 39 38 37 36 37 38 39 40 41 42 42 43 43 41 39 38 38 39 39 40 40 38 35 32 31 32 32 30 29 29 28 27 26 25 24 23 20 16 13 12 10 9 9 9 10 12 13 14 16 17 16 18 19 19 19 19 20 21 21 22 23 24 24 24 24 26 27
25 27 29 31 33 35 36 38 40 42 44 44 42 42 42 42 41 40 38 37 37 37 38 40 41 41 41 41 42 42 41 39 38 37 38 38 37 37 35 33 31 29 29 29 29 29 28 27 26 24 22 21 20 20 18 15 12 12 11 11 12 12 13 14 15 16 17 16 15 17 18 17 18 19 20 20 20 20 21 22 22 23 24 26 26
29 30 32 34 36 38 39 41 42 44 44 44 43 43 43 42 41 39 37 37 37 38 40 40 41 40 40 41 41 40 39 38 37 36 36 36 34 33 31 30 28 26 26 27 28 29 27 25 23 20 17 16 17 17 16 13 11 11 12 12 12 12 12 13 13 14 14 14 14 15 16 17 18 19 19 19 19 20 21 21 20 21 23 24 25
32 33 34 36 38 40 41 43 45 45 45 44 44 44 43 41 39 37 37 37 38 39 40 40 40 39 40 40 40 39 37 36 35 35 34 33 32 30 28 26 24 24 24 25 26 25 24 22 20 17 14 13 14 14 14 12 10 9 10 10 10 10 10 9 10 10 11 12 13 14 15 16 18 18 18 18 19 19 18 18 18 19 21 22 24
35 36 37 38 39 40 42 44 46 46 44 43 44 44 42 39 37 37 37 38 39 39 39 39 39 39 39 39 39 37 36 35 34 33 32 31 29 26 23 21 21 21 21 21 22 21 20 19 18 16 13 13 12 12 12 12 10 8 8 8 7 7 7 8 9 9 10 10 12 13 14 15 16 17 18 18 19 19 18 17 18 18 19 20 20
38 39 39 40 40 41 43 44 45 44 43 43 43 42 39 37 36 37 38 38 38 38 38 38 38 39 39 39 38 37 36 35 33 31 29 27 25 21 19 18 18 18 18 20 21 20 18 17 16 15 13 12 11 10 10 10 9 7 6 6 6 6 6 7 7 8 9 10 11 13 14 15 16 17 18 18 18 18 17 18 18 17 17 18 18
40 40 39 39 40 41 43 44 43 42 42 42 41 39 37 36 37 38 38 37 37 37 37 37 38 39 39 38 37 36 35 33 30 28 25 22 20 18 16 16 16 17 18 20 20 19 18 16 14 14 14 13 12 11 10 9 8 7 7 6 6 6 6 6 6 6 7 8 9 10 10 11 10 11 13 15 17 17 18 18 18 17 17 16 17
38 37 37 38 40 41 42 43 41 41 41 40 38 36 36 36 37 38 37 36 36 36 36 37 37 37 37 36 36 34 32 29 26 23 20 18 18 17 15 15 17 18 18 19 18 17 17 16 15 14 13 13 13 12 11 11 10 9 9 9 8 8 7 7 6 6 7 8 9 10 11 12 11 10 9 10 11 12 12 13 15 16 17 16 17
35 35 37 39 40 40 41 41 40 39 39 38 36 36 36 37 37 36 35 35 35 35 36 36 36 35 33 33 32 30 27 24 21 18 16 16 16 16 14 15 17 16 16 16 14 14 15 17 17 15 13 13 13 13 12 12 12 11 11 10 9 9 9 9 8 8 8 8 9 9 10 11 11 11 11 12 12 12 10 8 7 8 9 11 14
35 37 39 39 39 39 39 39 38 38 37 35 35 36 37 37 36 35 34 34 34 34 35 35 33 31 29 27 25 24 22 20 18 17 16 15 16 16 15 14 14 14 14 13 12 11 13 15 15 14 13 12 13 12 12 12 12 11 10 9 9 8 9 9 9 9 9 9 9 9 10 11 11 12 13 13 12 12 11 11 10 10 9 8 7
36 38 39 38 37 37 37 37 37 36 35 34 35 36 36 35 34 33 33 33 34 34 34 33 30 27 24 22 19 19 20 20 19 18 18 17 16 14 13 12 12 12 12 11 10 10 11 12 13 13 12 11 11 12 11 10 10 9 9 9 10 10 10 10 10 10 10 10 10 11 11 11 12 12 12 12 13 13 13 13 12 12 11 10 10
37 38 37 36 36 36 35 36 35 34 34 34 35 35 34 33 32 32 32 33 33 34 32 29 25 23 20 18 17 18 22 24 24 24 24 22 19 16 14 13 14 15 15 14 14 13 13 13 13 13 12 12 12 12 12 11 11 11 11 12 12 12 12 12 12 13 13 14 15 16 16 16 16 16 16 16 16 16 17 17 17 16 15 14 14
36 36 35 34 34 34 34 34 34 33 33 34 34 34 33 31 31 31 32 32 33 32 29 24 21 19 17 16 17 19 22 23 23 22 22 21 19 16 14 14 15 17 19 19 19 19 19 19 18 17 17 17 16 16 16 16 16 16 16 16 17 17 18 18 18 18 18 19 19 20 20 20 20 20 19 19 19 19 19 19 19 19 19 18 18
36 34 33 33 32 33 33 33 32 32 33 33 33 32 31 30 30 31 32 32 31 28 23 19 16 15 14 15 16 18 19 20 19 18 17 18 17 15 13 15 16 17 19 20 20 21 21 21 21 21 20 20 20 20 20 20 20 20 20 20 20 20 21 21 20 20 20 20 21 21 21 20 20 20 20 20 20 20 19 19 19 19 19 19 19
34 33 32 32 31 32 32 32 31 32 32 32 32 31 30 30 30 31 31 31 28 23 17 14 12 11 12 13 15 15 16 17 17 16 16 16 16 16 14 14 15 15 16 18 19 19 19 19 19 19 20 20 20 20 21 20 20 21 21 21 21 21 21 21 21 21 21 21 21 21 20 20 20 19 19 19 19 18 18 18 18 18 18 18 18
33 32 31 30 30 31 30 30 30 31 31 31 30 29 29 29 30 31 30 28 23 18 13 10 9 9 10 12 13 14 14 15 15 16 16 15 15 15 14 12 12 12 13 14 15 15 15 16 16 17 18 19 19 20 20 20 20 21 21 21 21 21 21 21 21 21 21 20 20 20 20 19 19 19 18 18 18 18 18 18 18 18 18 18 19
32 30 29 29 29 29 29 29 30 30 30 30 29 28 28 29 30 29 27 23 18 14 10 7 6 7 8 10 13 14 14 14 14 15 15 14 15 15 14 12 11 11 11 11 12 12 13 14 14 15 17 17 18 19 19 19 20 20 20 20 20 20 20 20 20 20 20 19 19 19 19 19 18 18 18 18 18 19 19 19 19 19 19 19 20
30 28 28 28 27 27 27 28 29 29 29 28 28 27 28 29 29 27 23 18 14 11 8 6 6 7 8 10 12 13 14 14 14 14 14 14 14 14 12 11 10 10 10 10 11 11 12 13 14 15 16 16 17 17 17 18 18 18 19 19 18 18 19 19 19 19 19 19 19 19 19 19 19 19 19 19 19 19 19 19 19 19 19 19 19
28 27 27 26 26 26 27 27 28 28 28 27 27 27 28 29 27 23 19 15 12 9 7 6 6 7 8 9 10 12 13 13 13 13 13 13 12 12 11 10 10 9 9 10 10 11 12 12 13 14 14 15 15 15 16 16 16 17 17 17 17 17 17 17 18 18 18 18 18 18 19 19 19 19 19 19 19 19 19 19 19 19 19 19 20
27 26 26 25 25 25 26 26 27 27 26 26 26 28 28 27 23 19 15 12 10 8 7 6 7 7 7 8 9 11 12 13 12 12 12 12 11 10 9 9 8 8 8 8 9 10 11 12 12 12 13 13 13 13 14 14 14 14 15 15 15 15 16 16 16 17 17 18 18 19 19 19 19 19 19 19 20 20 20 20 20 20 20 20 21
26 25 24 23 24 24 25 25 25 25 25 25 26 27 27 24 19 16 13 11 9 8 7 6 6 6 6 7 9 10 11 12 12 12 11 11 10 9 8 7 6 6 7 8 9 9 10 10 10 11 11 11 12 12 12 12 12 13 13 13 14 15 15 16 17 17 18 19 19 19 19 19 20 20 20 20 20 20 20 20 20 20 21 21 22
24 23 22 22 23 23 23 24 24 24 24 25 26 26 24 20 15 13 11 10 9 8 7 6 6 6 6 7 8 10 11 11 11 11 11 10 10 9 8 6 6 6 6 7 8 8 9 9 9 9 10 10 10 10 11 11 11 12 13 14 15 15 16 17 17 18 19 19 19 19 19 19 20 20 20 20 20 20 20 20 20 21 22 23 24
22 22 21 22 22 22 22 22 22 23 24 25 26 24 21 16 13 11 11 10 10 9 7 7 6 6 6 7 8 10 11 11 11 11 10 10 10 8 7 5 5 5 6 6 7 7 8 8 8 8 9 9 9 9 10 11 12 13 14 14 15 16 17 17 18 18 19 19 19 19 19 19 19 19 19 19 19 19 20 21 22 23 24 24 25
21 21 21 21 20 21 21 21 21 22 23 25 25 22 17 13 11 11 11 10 10 9 8 7 6 6 6 7 8 10 11 11 11 10 10 10 9 8 6 5 4 5 5 6 6 7 7 7 7 8 8 9 9 10 11 12 13 13 14 15 16 17 17 18 18 19 19 19 19 18 18 18 18 18 18 19 19 20 21 22 23 24 25 25 26
21 20 20 19 19 19 19 19 20 21 22 23 22 18 14 11 10 10 11 10 10 10 8 7 6 6 7 7 9 11 11 11 11 10 10 10 9 7 5 4 4 4 5 6 6 6 6 7 7 8 8 10 11 12 13 13 14 15 16 17 18 19 19 19 19 19 19 19 18 18 18 18 18 18 18 19 20 21 22 23 23 24 25 26 27
20 19 19 18 18 18 18 18 19 20 21 22 19 15 12 10 9 9 10 10 11 10 9 8 6 6 7 8 10 12 12 12 11 10 10 9 8 6 5 4 4 4 5 5 5 6 6 7 8 9 10 11 12 13 14 15 17 18 19 19 19 20 19 19 19 19 18 18 18 17 17 17 17 18 18 19 20 21 22 22 23 24 25 26 27
18 18 18 17 16 16 16 16 17 19 19 18 15 12 11 10 9 9 9 9 10 10 9 8 6 6 7 9 11 12 12 11 11 10 10 9 7 6 5 4 4 4 5 5 6 7 8 8 9 11 12 13 14 15 16 18 19 19 20 20 19 19 18 18 17 17 17 17 17 17 17 17 17 17 18 19 20 21 22 22 23 24 25 26 27
17 17 17 16 15 14 14 14 15 16 16 14 12 10 10 9 9 8 8 7 8 8 8 7 6 6 8 9 10 12 12 11 10 10 9 8 7 5 5 4 4 5 6 7 8 9 10 10 11 13 14 15 16 17 18 18 19 19 19 18 18 18 17 17 17 16 16 17 17 16 16 16 17 18 19 20 21 22 23 23 24 24 25 26 27
17 16 15 14 13 12 12 12 13 12 11 9 7 7 7 6 6 6 6 5 6 7 7 6 6 7 8 9 10 11 11 10 9 9 8 7 6 5 5 5 6 6 7 8 9 10 11 12 13 14 15 16 17 17 18 18 18 18 18 18 18 18 18 17 17 17 17 17 16 16 16 17 17 19 20 21 22 23 24 24 25 25 26 27 28
16 15 14 12 11 10 10 10 9 8 6 4 3 3 3 3 4 5 6 7 8 7 6 5 6 6 7 8 9 10 10 9 8 7 7 6 6 6 6 6 7 8 8 9 10 11 12 12 13 14 15 16 16 17 17 17 17 17 17 18 18 18 18 18 18 18 18 18 17 17 17 18 19 20 21 22 23 24 25 25 26 26 27 28 29
15 13 12 11 9 8 8 7 6 5 3 2 2 3 3 5 7 8 8 7 6 4 4 5 5 6 6 7 8 9 8 7 7 7 7 6 6 6 7 7 8 8 9 10 10 11 12 12 13 14 15 15 16 16 16 16 16 17 17 17 18 18 19 19 19 19 19 18 18 18 19 19 20 21 22 23 24 25 26 26 26 27 28 29 30
13 12 11 10 9 8 7 6 4 3 2 2 4 5 6 6 7 6 5 4 4 4 4 5 5 5 5 5 6 7 7 7 7 7 7 7 8 8 8 8 9 9 10 10 11 12 12 13 13 14 14 15 16 16 16 16 16 17 17 17 18 18 18 19 19 19 19 19 19 19 20 21 22 23 23 24 25 26 27 27 27 28 29 30 31
12 11 10 10 9 9 9 8 5 3 2 0 1 2 3 3 3 3 3 3 3 4 4 4 5 5 5 5 6 7 7 7 7 7 8 8 9 9 9 10 10 10 10 11 11 12 13 13 13 14 14 15 15 16 16 16 16 17 17 18 18 18 19 19 19 20 20 20 20 20 21 22 23 24 25 26 27 27 28 28 29 29 30 31 33
12 11 10 10 11 11 11 11 9 7 5 5 4 4 3 3 3 3 4 4 4 4 5 5 6 7 7 7 7 7 8 8 8 8 8 9 10 10 10 11 11 11 11 12 12 13 13 14 14 14 14 15 15 16 16 17 17 17 18 18 19 19 20 20 20 21 21 22 22 23 23 24 25 26 27 27 28 29 29 30 30 31 32 33 35
Wind_Direction
283 311 326 336 342 345 347 345 343 345 347 344 344 349 349 344 341 339 336 334 330 328 328 325 324 323 321 322 322 321 320 317 315 314 311 310 309 307 307 305 303 302 301 300 300 300 299 299 300 300 297 295 295 294 292 292 291 289 289 288 286 285 285 286 287 286 284 283 284 283 283 282 280 279 277 276 276 278 278 277 277 273 269 267 265
294 318 330 338 342 342 344 347 347 348 347 344 342 347 350 345 340 338 337 336 332 329 329 329 329 327 323 321 320 318 318 316 313 311 309 309 308 307 307 305 303 302 301 300 299 297 296 296 297 297 296 296 296 294 292 292 291 288 287 286 285 284 283 283 283 282 280 280 281 281 280 280 279 277 276 277 277 278 277 277 278 276 271 267 264
306 321 330 334 336 337 339 342 344 344 345 344 340 341 345 343 339 337 336 337 333 329 328 329 329 326 322 321 319 318 316 315 313 310 309 309 309 308 308 307 305 304 301 299 298 297 296 296 296 296 295 294 294 293 292 291 289 287 286 285 284 282 281 281 281 280 280 279 280 280 279 276 276 275 275 276 275 275 276 276 277 277 273 269 264
309 318 324 326 327 330 333 336 339 340 341 341 339 338 337 335 335 335 334 333 331 327 327 327 326 323 321 321 319 317 316 315 312 310 310 310 309 307 306 304 303 302 300 299 299 299 300 300 299 298 295 292 291 290 289 289 288 286 285 285 283 282 281 279 279 279 280 280 280 279 276 274 275 275 273 271 271 273 274 274 275 276 272 268 264
305 312 315 317 320 325 328 330 333 334 333 335 335 336 336 333 333 334 333 332 330 328 327 326 324 322 320 319 317 316 315 313 312 311 310 310 307 305 303 302 302 301 302 302 303 304 303 301 299 296 293 292 291 289 288 288 286 285 285 284 282 282 281 280 279 278 279 279 278 277 275 273 274 274 272 270 270 272 273 273 273 274 272 268 264
300 305 307 310 315 321 325 325 326 329 331 332 333 335 336 335 334 334 333 332 330 329 328 326 323 321 319 318 316 315 313 312 311 311 309 308 307 306 304 303 303 303 304 304 304 303 301 299 297 295 294 293 292 291 289 289 287 286 286 284 282 281 280 279 278 276 276 277 276 274 273 272 274 273 272 271 272 272 273 272 271 270 269 268 266
299 302 305 309 314 318 322 324 327 331 334 335 334 333 333 333 333 333 332 331 329 327 325 324 322 320 318 317 315 313 312 311 311 310 309 308 308 306 305 304 304 304 305 305 303 301 300 298 297 296 295 294 294 293 292 290 289 289 288 286 283 281 280 277 275 274 274 274 274 274 273 273 274 274 273 273 273 272 271 271 269 266 265 265 264
301 303 306 310 314 317 322 328 333 336 337 336 334 333 333 333 333 332 331 329 328 325 323 322 320 318 316 315 314 313 312 312 311 309 309 308 306 305 305 305 305 305 305 304 302 301 300 299 298 297 296 295 294 293 292 291 290 290 289 287 285 282 280 277 275 274 272 272 273 274 274 273 272 272 273 273 273 271 269 268 267 266 264 264 262
302 304 308 312 316 322 328 333 337 338 337 335 333 332 332 332 332 330 329 327 326 324 323 321 319 317 315 314 313 312 311 310 309 308 307 306 305 305 305 306 306 305 304 303 302 301 300 299 298 296 295 295 293 292 291 289 288 287 287 286 284 282 280 278 276 274 272 271 272 272 271 272 272 272 272 272 271 271 270 269 267 266 264 262 260
301 304 309 316 322 329 334 336 337 336 334 332 330 330 331 331 330 328 326 325 324 322 321 319 316 314 313 311 310 310 309 308 308 308 307 306 306 307 307 307 306 305 303 302 301 300 299 298 296 295 295 293 292 290 289 288 287 286 285 283 282 281 279 278 276 274 271 270 270 269 269 270 271 271 272 272 271 272 270 268 266 263 262 261 258
299 303 312 320 327 333 336 335 334 333 331 329 328 329 330 330 328 327 325 323 321 319 316 314 312 310 309 308 308 309 308 308 309 309 309 309 309 309 308 306 304 303 302 302 301 300 300 298 297 296 295 294 293 291 290 289 287 286 285 283 281 280 279 278 276 274 272 270 269 268 268 268 269 270 270 271 272 271 269 267 265 262 261 260 257
298 304 313 322 329 333 334 333 330 329 328 327 327 328 329 329 327 325 324 322 319 316 313 312 310 309 308 307 308 309 309 310 311 311 310 309 308 307 305 304 303 304 304 304 304 303 302 301 300 299 299 298 296 295 293 291 290 288 286 284 282 280 278 276 275 273 271 269 268 268 268 267 268 269 270 271 271 269 268 266 264 262 261 260 257
299 306 315 323 329 331 331 329 327 326 326 326 326 327 328 327 325 324 322 320 318 315 313 312 311 309 308 307 308 310 311 311 311 310 308 307 306 305 305 305 306 307 307 306 306 305 304 303 303 304 304 302 300 299 298 296 294 291 288 285 282 279 276 273 272 271 269 267 266 267 267 267 268 270 271 270 268 266 265 264 262 261 260 259 258
301 309 318 325 327 327 327 326 325 325 324 324 325 326 326 325 323 322 321 320 318 316 315 313 311 309 309 309 310 311 311 311 310 309 308 308 307 308 308 309 309 308 307 307 306 305 305 304 305 306 306 304 303 302 300 299 298 294 290 287 283 278 273 270 269 269 268 267 267 268 268 268 269 271 271 269 268 266 262 260 260 260 259 259 260
305 313 320 323 323 324 324 324 324 324 322 323 325 326 325 323 322 321 321 320 318 317 315 313 311 311 311 311 312 312 312 312 311 310 310 310 310 310 310 310 309 308 307 307 306 305 306 306 306 307 306 304 303 301 300 302 301 298 295 293 288 278 271 268 267 268 268 267 268 269 269 268 269 269 270 270 272 272 264 259 259 260 259 259 260
309 315 318 319 320 321 322 322 322 322 321 323 325 325 323 322 321 321 321 319 317 316 315 313 312 313 314 314 314 314 314 314 312 311 312 311 311 310 310 310 308 308 308 308 309 309 309 308 308 307 305 304 302 299 301 305 304 302 303 303 293 278 268 269 272 272 271 271 271 271 271 271 271 272 272 273 275 275 268 260 259 259 258 258 259
310 314 315 316 317 318 319 320 319 319 321 323 324 323 323 322 321 321 320 318 316 315 315 314 315 316 316 316 316 315 315 314 313 313 313 312 311 310 310 308 308 309 311 313 314 314 312 311 310 307 304 302 301 299 300 305 304 300 301 298 293 284 272 271 276 278 278 280 279 276 274 275 274 273 275 277 277 275 270 263 261 261 259 257 257
307 310 311 312 314 315 316 317 317 317 320 322 323 323 322 322 321 320 319 317 315 315 315 316 317 318 318 317 316 316 315 315 314 314 313 312 311 310 308 309 312 316 318 319 318 316 315 314 312 310 305 302 300 298 298 299 296 293 292 288 286 282 276 276 280 283 285 287 285 283 281 279 275 272 273 278 281 278 273 268 264 261 258 255 254
302 304 305 307 309 311 313 315 315 316 319 322 322 322 322 321 320 318 317 316 315 315 316 318 319 319 319 318 318 317 317 317 317 315 313 312 310 310 311 315 319 322 322 322 321 320 319 317 314 312 308 304 302 299 297 297 293 287 284 282 282 283 285 289 290 289 290 289 285 283 281 278 277 275 275 279 285 285 280 274 266 260 257 255 254
297 299 301 303 305 307 311 313 314 316 320 321 321 321 320 319 317 316 315 315 315 316 318 320 320 320 320 319 319 319 319 318 317 316 314 313 313 314 318 319 321 325 328 327 327 327 326 324 321 319 314 309 305 302 301 302 298 290 287 289 294 298 299 299 296 292 291 287 284 283 282 281 282 282 280 281 283 283 279 272 264 258 256 255 255
294 296 299 301 304 307 309 311 313 317 320 320 319 319 318 316 315 315 314 315 316 318 320 321 321 320 320 321 321 321 321 320 320 319 317 317 317 318 319 320 326 333 334 333 333 334 335 336 336 333 328 323 319 315 315 317 315 308 307 311 315 316 313 309 305 301 299 297 295 293 290 288 288 286 285 283 282 282 279 272 266 264 262 260 259
291 294 298 301 304 307 308 309 313 318 319 318 318 317 316 315 314 314 314 315 317 319 321 322 321 321 322 323 324 324 324 324 323 321 319 318 318 318 320 327 335 338 337 340 344 345 346 350 352 351 348 345 342 341 341 343 346 347 344 340 337 332 329 327 323 319 317 312 306 299 295 292 290 289 289 288 287 287 285 280 275 274 273 270 267
290 293 297 300 304 307 308 310 315 317 317 316 316 315 314 314 314 314 315 317 319 322 323 323 323 324 325 327 327 328 328 326 324 321 319 318 319 323 330 337 339 339 345 352 355 354 355 0 4 5 3 1 2 6 11 15 18 20 17 11 6 2 356 350 340 332 323 314 307 303 299 294 290 287 288 289 289 288 285 281 278 274 272 272 272
290 292 295 300 303 305 307 312 316 316 315 315 314 313 313 314 314 315 317 319 322 323 324 324 325 327 328 329 330 329 328 326 323 320 319 321 327 333 337 339 340 346 354 359 1 2 3 7 12 15 18 20 22 27 34 40 44 45 43 40 38 35 26 14 359 345 336 335 338 339 335 330 319 305 298 295 292 288 283 281 281 279 276 276 277
291 292 295 300 304 305 308 313 315 314 313 313 313 313 314 314 315 316 319 321 323 324 324 326 327 329 331 331 330 329 327 324 322 321 323 329 334 333 332 337 343 350 357 1 5 9 11 16 22 24 27 33 37 40 45 49 53 55 55 55 55 52 46 37 27 19 14 15 18 18 15 14 14 12 359 344 333 321 306 292 285 283 281 279 277
292 293 296 301 304 306 309 313 313 311 311 312 313 314 314 315 316 318 320 323 324 324 326 327 329 331 332 332 330 328 327 326 324 323 325 329 330 328 332 338 342 349 357 2 7 10 11 18 27 32 36 42 46 48 52 56 59 60 61 64 65 57 47 39 33 29 24 21 19 15 10 8 10 14 12 8 8 9 8 1 342 318 303 290 280
291 293 297 301 304 306 310 311 309 309 310 312 313 314 314 315 317 319 322 323 324 325 326 327 329 332 334 333 332 334 337 337 332 327 325 324 324 327 334 340 344 353 0 2 6 7 4 12 26 36 42 48 52 55 57 59 59 56 54 57 58 49 39 34 31 27 22 17 12 7 3 359 360 4 5 6 10 17 22 25 24 20 14 5 342
289 293 298 301 304 307 309 308 307 308 310 312 314 314 314 316 318 320 322 323 324 325 327 328 330 333 335 335 339 351 0 3 1 359 356 352 348 349 356 3 10 15 14 12 13 9 5 14 28 38 42 46 49 50 51 52 52 46 41 42 42 39 37 34 31 29 28 27 25 21 19 17 15 14 14 16 21 26 30 31 29 28 27 26 22
291 295 298 301 305 307 306 305 306 308 310 312 313 313 314 316 319 321 322 323 324 325 326 328 331 334 337 342 353 10 19 21 22 22 18 15 16 22 27 33 40 43 41 39 37 34 33 35 38 41 45 49 49 48 47 47 48 47 46 47 48 49 50 49 48 49 50 51 51 50 49 47 46 44 43 42 41 41 40 38 37 36 35 32 30
292 297 299 302 305 305 304 304 306 309 311 312 312 312 314 317 319 321 322 323 324 324 325 328 331 335 344 354 6 20 24 22 21 22 18 13 15 23 33 40 46 50 49 47 47 47 49 50 50 51 54 57 59 59 59 58 58 59 60 62 63 64 63 62 61 61 61 60 59 58 57 55 54 52 50 48 47 45 43 41 39 37 35 33 32
293 296 299 303 305 303 302 304 307 309 311 311 311 312 315 318 319 321 321 322 322 323 324 328 330 337 352 3 11 19 21 16 13 13 12 6 1 4 20 34 40 45 48 48 47 47 50 52 54 56 58 61 63 64 65 65 65 64 64 64 64 64 64 63 62 60 59 59 58 56 54 53 51 49 47 44 42 41 40 38 37 35 33 30 28
291 295 300 303 303 302 302 304 307 309 310 309 310 313 316 318 319 320 320 321 321 321 323 325 326 337 355 2 5 10 12 9 6 3 4 3 355 351 4 26 34 39 45 48 48 48 50 52 54 56 58 60 61 63 64 64 64 63 62 62 61 61 62 61 60 58 57 55 54 52 51 49 47 45 43 41 39 37 35 34 32 30 28 25 22
290 295 300 302 300 300 302 305 308 308 308 308 310 313 316 317 318 318 319 319 319 319 318 317 321 339 354 355 354 356 357 358 357 354 355 359 354 349 356 15 27 32 41 48 50 50 50 52 53 55 56 57 59 61 62 62 62 63 62 61 61 61 60 59 58 57 55 53 51 50 48 45 44 42 40 38 36 34 31 29 27 25 22 20 17
290 295 299 299 298 299 302 306 307 306 306 308 311 313 315 317 317 317 318 318 316 313 308 303 315 335 345 345 345 344 344 346 347 346 345 348 348 345 349 3 17 25 35 44 48 49 50 52 53 55 58 59 60 61 62 62 63 63 62 62 61 60 59 58 56 55 53 51 49 47 44 42 40 37 35 32 30 28 25 23 20 18 16 14 11
291 296 296 296 296 299 303 305 305 305 306 308 311 313 314 315 315 316 317 315 311 303 292 288 305 325 333 339 342 340 339 342 343 342 341 340 339 337 340 352 7 17 27 37 44 49 53 57 59 61 63 63 63 63 63 63 63 62 61 60 59 58 57 55 54 52 50 47 44 41 38 35 32 30 27 24 22 20 18 15 14 11 10 8 6
292 294 293 293 296 300 303 304 303 304 306 308 311 313 313 313 314 315 315 310 301 288 276 281 304 321 330 335 338 338 338 339 339 338 338 336 334 333 339 352 4 11 21 34 44 51 57 60 61 62 63 63 63 63 63 62 61 61 60 59 58 56 55 52 49 46 42 38 35 31 28 25 22 20 18 16 14 12 10 8 6 5 3 2 1
291 291 290 293 297 301 302 302 302 304 306 308 310 311 311 311 312 313 310 302 287 271 266 283 306 320 328 332 333 333 334 334 333 334 335 334 334 339 347 358 7 15 26 39 48 54 58 60 60 61 62 62 61 61 60 60 60 59 58 57 54 51 47 43 39 34 30 27 23 20 18 16 14 12 11 9 8 6 4 3 2 1 1 0 359
287 287 289 294 298 299 300 300 302 304 307 309 309 308 308 310 311 310 304 292 272 259 262 282 300 310 319 327 330 329 328 328 330 332 333 334 340 348 356 6 17 30 42 51 56 59 60 61 61 61 60 59 58 58 58 59 58 56 52 48 43 38 34 29 25 22 18 16 14 11 10 8 7 6 5 4 3 2 2 2 2 1 0 359 358
283 285 290 295 297 297 298 300 302 305 307 307 306 306 308 310 309 305 297 280 259 251 259 274 283 296 310 320 325 326 325 325 327 331 334 340 347 354 0 11 27 44 54 58 60 60 59 59 59 58 56 55 55 54 53 50 46 41 36 31 26 22 18 15 13 10 8 7 5 3 3 2 1 1 0 360 0 1 1 1 1 360 359 357 355
282 286 291 294 295 296 297 299 303 306 306 304 303 305 309 308 303 297 289 269 250 245 254 262 272 293 310 317 322 324 322 321 323 330 338 344 349 354 2 12 28 46 53 54 54 54 51 49 49 49 48 46 43 38 34 29 25 22 18 14 11 8 4 2 0 358 357 356 355 355 355 355 355 356 356 357 358 359 360 360 359 357 356 354 353
282 287 290 291 293 294 297 301 304 305 303 302 303 306 308 304 295 287 278 261 245 241 247 256 271 296 312 320 324 321 317 317 323 332 341 344 345 350 358 7 19 36 43 43 42 41 37 34 34 33 31 26 20 16 13 10 7 3 360 357 355 353 350 348 347 346 346 346 346 347 348 349 350 351 353 355 357 357 358 357 355 354 353 352 350
284 286 288 289 291 294 298 302 304 303 302 302 303 304 303 297 287 278 271 258 242 236 240 250 270 293 308 320 321 316 313 316 323 331 340 343 341 341 348 353 3 19 28 28 26 24 20 15 13 11 8 4 0 357 355 352 349 346 345 343 342 340 339 338 338 338 338 339 340 342 343 345 348 350 353 354 355 355 355 354 353 352 352 350 349
283 284 286 287 290 295 299 301 303 303 302 302 301 299 295 289 281 274 267 253 239 234 237 243 259 284 303 314 316 312 311 315 322 330 339 341 337 333 334 338 347 360 7 9 7 4 359 355 352 351 350 348 345 342 340 338 337 336 335 334 334 333 333 334 334 335 336 338 340 342 344 347 349 351 352 352 352 351 351 351 351 351 351 349 348
281 283 284 286 290 295 299 302 305 304 302 299 297 292 287 281 274 269 264 253 242 237 235 237 251 281 303 311 311 309 310 315 323 330 336 340 337 328 323 325 334 343 348 350 351 349 345 342 342 342 340 337 334 333 333 332 332 332 332 332 333 334 335 337 338 339 341 343 344 346 348 349 350 349 348 348 348 348 349 349 349 349 348 347 345
280 281 283 286 291 295 300 304 306 304 299 295 292 287 282 276 268 263 259 251 239 230 224 229 253 288 305 308 308 308 311 317 325 330 334 339 340 332 322 321 326 333 338 342 344 342 340 340 340 339 336 333 331 331 331 332 333 334 335 336 338 339 341 343 344 345 346 347 347 347 347 346 345 345 344 344 345 346 347 347 346 345 345 345 344
279 280 282 286 290 295 303 308 308 303 298 294 292 287 278 268 258 248 235 217 203 200 206 229 267 295 304 306 307 309 312 319 329 336 339 341 343 338 332 330 331 335 338 340 340 339 339 340 339 337 334 333 332 333 335 336 338 340 340 341 343 344 345 346 347 347 346 345 344 343 342 341 341 341 341 341 342 343 343 343 342 342 343 344 344
276 277 280 284 290 298 306 310 310 309 306 304 304 293 268 232 203 188 178 173 176 186 209 249 279 292 298 302 307 309 312 322 336 344 346 347 347 343 339 338 338 338 337 337 338 339 341 341 340 338 336 336 336 337 339 341 342 344 344 344 344 344 345 346 346 345 344 343 341 341 340 339 339 338 338 338 338 338 338 338 339 339 341 342 342
273 274 276 281 289 296 301 304 313 325 339 30 86 108 138 151 152 155 159 165 178 204 241 269 281 287 292 299 304 306 311 324 338 345 350 354 352 346 344 344 343 342 341 340 341 342 343 342 341 340 339 338 338 338 340 342 344 345 345 344 344 344 344 344 343 342 341 340 339 339 339 337 336 335 335 334 334 333 334 334 335 336 338 339 340
268 270 273 278 282 285 285 287 298 326 5 72 100 113 126 137 147 156 167 182 210 241 260 271 279 285 291 293 295 299 307 321 333 341 348 353 351 348 348 348 347 345 344 343 343 343 343 342 342 341 340 339 338 339 341 343 344 344 344 344 343 343 342 341 341 340 339 338 338 337 337 335 334 333 332 331 331 331 331 331 331 332 334 336 338
263 266 269 272 274 271 267 266 270 279 287 281 138 140 148 157 172 188 208 230 243 252 261 269 277 281 282 282 288 296 306 318 330 338 344 346 346 346 346 346 346 345 344 343 343 343 342 342 341 341 340 339 338 339 341 342 343 344 344 343 343 342 341 341 340 340 339 338 338 338 336 335 334 333 331 330 330 330 330 329 329 330 331 334 335
260 261 263 264 265 263 259 257 258 261 263 264 264 255 239 228 227 232 244 254 257 259 263 265 268 271 275 282 290 297 303 311 321 328 334 337 338 338 339 339 340 339 339 339 340 340 339 339 339 339 339 339 338 339 340 342 343 344 343 343 342 342 342 342 342 341 341 341 340 339 338 336 335 333 331 330 330 330 330 329 328 328 329 331 332
Height
5916 5916 5916 5916 5916 5916 5915 5915 5914 5913 5911 5910 5910 5910 5910 5909 5909 5909 5907 5906 5904 5903 5903 5903 5900 5897 5894 5891 5889 5888 5887 5885 5884 5882 5880 5878 5877 5875 5872 5871 5870 5869 5866 5864 5861 5859 5858 5857 5856 5855 5851 5849 5850 5850 5848 5847 5846 5844 5843 5842 5841 5840 5838 5834 5834 5836 5837 5838 5838 5839 5837 5835 5836 5836 5835 5835 5836 5836 5836 5836 5836 5837 5836 5837 5838
5915 5915 5916 5916 5915 5915 5914 5914 5913 5911 5910 5909 5908 5909 5909 5908 5908 5908 5907 5905 5902 5899 5898 5897 5895 5893 5891 5889 5887 5885 5883 5882 5880 5878 5877 5875 5873 5870 5867 5865 5865 5864 5861 5858 5856 5854 5852 5851 5851 5849 5846 5843 5842 5842 5841 5840 5838 5837 5837 5836 5835 5834 5833 5830 5828 5829 5832 5833 5832 5831 5831 5830 5830 5831 5830 5830 5830 5831 5830 5830 5831 5831 5831 5831 5832
5915 5915 5915 5915 5914 5914 5913 5913 5911 5910 5909 5908 5907 5907 5908 5908 5907 5906 5905 5904 5901 5898 5895 5893 5891 5890 5888 5887 5884 5882 5880 5878 5876 5874 5873 5870 5868 5865 5862 5859 5857 5856 5853 5851 5849 5847 5845 5845 5845 5843 5840 5838 5835 5834 5833 5832 5830 5828 5828 5829 5828 5827 5827 5825 5822 5822 5824 5825 5825 5825 5825 5824 5824 5825 5824 5824 5825 5825 5825 5825 5825 5825 5825 5826 5826
5914 5914 5914 5913 5913 5913 5912 5911 5910 5909 5908 5907 5906 5905 5906 5906 5905 5903 5901 5900 5899 5897 5895 5892 5890 5887 5885 5883 5881 5878 5877 5875 5873 5870 5868 5866 5863 5860 5857 5854 5852 5850 5847 5845 5843 5840 5838 5837 5837 5835 5833 5831 5830 5828 5825 5824 5823 5821 5820 5821 5820 5819 5819 5818 5816 5815 5816 5817 5818 5819 5819 5817 5818 5819 5818 5819 5819 5819 5819 5819 5820 5820 5820 5820 5821
5912 5912 5912 5912 5912 5912 5911 5910 5909 5908 5907 5906 5905 5903 5902 5901 5900 5898 5896 5894 5893 5892 5890 5889 5887 5884 5881 5879 5877 5875 5873 5870 5868 5865 5863 5861 5858 5855 5852 5850 5847 5844 5842 5839 5836 5834 5831 5829 5828 5827 5825 5823 5822 5821 5818 5817 5816 5814 5813 5813 5812 5810 5809 5809 5808 5808 5808 5809 5811 5813 5812 5812 5813 5813 5812 5813 5813 5813 5813 5813 5814 5814 5814 5815 5815
5911 5911 5911 5911 5911 5910 5910 5909 5908 5907 5906 5904 5903 5902 5900 5898 5897 5895 5892 5890 5888 5886 5885 5884 5882 5880 5878 5876 5873 5871 5868 5865 5863 5860 5857 5855 5852 5849 5846 5844 5841 5838 5835 5833 5831 5828 5826 5823 5821 5819 5816 5814 5813 5811 5810 5809 5808 5807 5805 5805 5804 5802 5801 5801 5800 5800 5801 5802 5804 5805 5806 5806 5806 5805 5805 5805 5806 5806 5807 5807 5808 5809 5809 5809 5810
5910 5910 5910 5910 5910 5909 5909 5908 5906 5905 5904 5903 5901 5900 5898 5896 5895 5893 5891 5888 5885 5883 5881 5879 5878 5876 5874 5872 5869 5866 5863 5860 5858 5855 5851 5849 5846 5843 5840 5837 5835 5833 5830 5827 5825 5822 5820 5817 5814 5811 5808 5806 5804 5802 5801 5800 5799 5798 5797 5795 5794 5793 5793 5793 5793 5793 5794 5794 5795 5797 5797 5798 5798 5797 5797 5798 5799 5800 5800 5801 5802 5802 5803 5804 5805
5909 5909 5909 5909 5908 5908 5907 5906 5905 5904 5903 5901 5900 5898 5896 5894 5892 5890 5888 5885 5883 5880 5878 5876 5874 5872 5870 5867 5864 5860 5857 5855 5852 5849 5846 5843 5840 5837 5834 5832 5829 5827 5824 5821 5818 5815 5812 5809 5807 5804 5801 5798 5795 5794 5793 5791 5790 5789 5788 5787 5785 5784 5785 5785 5785 5786 5786 5787 5788 5789 5789 5790 5791 5791 5791 5792 5792 5793 5794 5795 5796 5797 5798 5799 5800
5908 5908 5908 5907 5907 5906 5905 5904 5903 5902 5901 5899 5898 5896 5894 5892 5890 5888 5885 5883 5880 5877 5875 5873 5870 5868 5865 5862 5858 5855 5853 5851 5848 5845 5842 5838 5835 5832 5829 5826 5824 5821 5818 5815 5812 5809 5805 5803 5800 5797 5794 5791 5788 5786 5784 5783 5782 5781 5780 5779 5778 5777 5777 5777 5777 5778 5779 5779 5781 5782 5782 5783 5784 5784 5784 5785 5786 5787 5788 5789 5790 5791 5792 5793 5794
5907 5907 5906 5906 5905 5903 5902 5901 5901 5900 5899 5897 5896 5894 5892 5890 5887 5885 5882 5880 5877 5875 5872 5869 5867 5864 5860 5857 5854 5851 5849 5846 5843 5840 5837 5833 5830 5827 5824 5821 5818 5815 5812 5809 5806 5803 5800 5796 5793 5790 5787 5784 5781 5778 5776 5775 5774 5773 5773 5772 5770 5769 5769 5770 5770 5770 5771 5772 5774 5775 5775 5777 5778 5778 5778 5779 5780 5781 5782 5783 5784 5785 5786 5787 5789
5905 5905 5904 5903 5902 5901 5900 5899 5899 5898 5897 5895 5893 5891 5889 5887 5885 5882 5879 5877 5875 5872 5869 5866 5863 5860 5857 5853 5850 5847 5844 5841 5838 5835 5831 5827 5824 5821 5818 5815 5812 5809 5806 5803 5800 5797 5793 5789 5786 5783 5780 5777 5773 5771 5769 5767 5766 5766 5765 5764 5763 5762 5762 5763 5763 5763 5764 5765 5766 5767 5769 5771 5771 5771 5772 5773 5774 5775 5777 5777 5778 5779 5780 5782 5783
5903 5902 5902 5901 5900 5899 5899 5898 5897 5896 5894 5892 5890 5888 5887 5884 5882 5879 5876 5874 5871 5869 5865 5862 5859 5856 5852 5848 5845 5843 5840 5836 5833 5829 5826 5822 5819 5816 5813 5810 5806 5803 5800 5796 5793 5789 5786 5782 5778 5776 5773 5769 5766 5764 5762 5760 5759 5758 5757 5757 5756 5755 5755 5756 5757 5757 5758 5759 5760 5762 5763 5764 5765 5765 5766 5768 5769 5770 5771 5772 5773 5774 5775 5776 5777
5900 5900 5899 5899 5898 5897 5897 5896 5895 5893 5891 5889 5888 5886 5884 5881 5879 5876 5873 5870 5868 5864 5861 5858 5855 5851 5847 5843 5840 5838 5835 5831 5828 5825 5821 5817 5814 5811 5808 5804 5800 5797 5793 5790 5786 5782 5778 5775 5771 5769 5767 5763 5760 5758 5756 5754 5752 5750 5749 5749 5748 5748 5748 5749 5750 5752 5752 5754 5755 5757 5758 5759 5760 5761 5762 5763 5764 5764 5765 5766 5767 5768 5769 5770 5772
5898 5897 5897 5896 5896 5895 5894 5893 5892 5890 5888 5887 5885 5883 5880 5878 5875 5872 5869 5866 5863 5860 5856 5853 5850 5847 5843 5839 5836 5834 5831 5827 5823 5819 5815 5812 5809 5805 5802 5798 5795 5791 5788 5784 5781 5777 5773 5769 5766 5763 5761 5758 5756 5753 5751 5749 5747 5745 5743 5742 5742 5742 5742 5744 5746 5747 5748 5750 5752 5753 5753 5754 5756 5757 5757 5758 5759 5760 5760 5761 5762 5763 5764 5765 5767
5895 5895 5894 5894 5893 5893 5892 5890 5889 5887 5886 5884 5882 5880 5877 5874 5871 5868 5865 5862 5859 5855 5852 5849 5846 5842 5839 5835 5832 5829 5826 5822 5818 5814 5810 5807 5804 5800 5797 5793 5790 5786 5783 5780 5776 5773 5769 5765 5762 5759 5757 5754 5752 5749 5747 5745 5743 5741 5740 5739 5738 5738 5739 5741 5743 5744 5745 5747 5749 5749 5750 5751 5752 5753 5753 5754 5754 5755 5756 5757 5758 5758 5760 5761 5762
5893 5893 5892 5892 5891 5890 5889 5888 5886 5885 5883 5881 5879 5876 5873 5870 5867 5864 5861 5858 5854 5851 5848 5845 5842 5838 5834 5831 5827 5823 5821 5817 5812 5809 5806 5803 5799 5796 5792 5789 5785 5782 5779 5775 5772 5768 5765 5761 5758 5755 5753 5751 5749 5746 5745 5744 5742 5740 5739 5738 5738 5738 5738 5739 5741 5742 5743 5744 5746 5746 5747 5748 5748 5749 5750 5750 5750 5750 5751 5752 5752 5753 5755 5756 5757
5891 5891 5891 5890 5889 5888 5887 5886 5884 5882 5880 5878 5876 5873 5869 5867 5863 5860 5857 5854 5850 5847 5844 5841 5837 5834 5830 5826 5823 5819 5816 5812 5808 5805 5802 5799 5795 5791 5788 5784 5781 5778 5775 5771 5767 5764 5761 5758 5755 5752 5749 5748 5746 5744 5743 5742 5741 5739 5739 5738 5738 5738 5738 5739 5740 5740 5741 5742 5743 5743 5744 5744 5745 5746 5746 5747 5747 5747 5747 5747 5747 5749 5751 5752 5752
5889 5889 5889 5888 5887 5886 5884 5883 5881 5879 5877 5875 5872 5869 5865 5862 5859 5856 5853 5850 5846 5843 5839 5836 5833 5829 5826 5822 5819 5815 5811 5808 5804 5801 5798 5795 5791 5787 5784 5780 5778 5774 5771 5767 5764 5761 5758 5755 5752 5749 5746 5745 5743 5742 5741 5741 5740 5739 5738 5738 5738 5738 5738 5739 5739 5739 5740 5741 5741 5741 5742 5742 5743 5743 5743 5744 5744 5744 5743 5744 5744 5745 5747 5747 5748
5887 5887 5886 5885 5884 5883 5882 5880 5878 5876 5873 5871 5868 5865 5861 5858 5855 5852 5848 5846 5842 5838 5835 5832 5828 5825 5821 5818 5815 5811 5807 5804 5801 5797 5794 5791 5787 5784 5780 5777 5774 5771 5768 5764 5760 5757 5755 5751 5749 5746 5744 5743 5741 5740 5740 5740 5739 5738 5737 5737 5737 5738 5738 5739 5739 5739 5739 5740 5740 5740 5741 5741 5740 5740 5741 5742 5741 5741 5740 5740 5741 5742 5742 5743 5744
5885 5884 5883 5883 5882 5880 5879 5877 5875 5872 5870 5867 5864 5861 5857 5854 5851 5848 5844 5841 5838 5834 5831 5828 5824 5821 5818 5814 5811 5807 5803 5800 5797 5794 5790 5787 5783 5780 5777 5774 5771 5768 5765 5762 5758 5755 5752 5749 5746 5744 5743 5741 5740 5739 5738 5738 5738 5737 5737 5737 5737 5738 5738 5738 5738 5738 5738 5739 5739 5739 5739 5739 5738 5738 5739 5739 5738 5738 5738 5738 5738 5738 5739 5740 5741
5882 5882 5881 5880 5879 5877 5876 5873 5871 5868 5866 5863 5860 5857 5854 5850 5847 5844 5841 5838 5834 5831 5827 5824 5821 5817 5814 5811 5807 5804 5800 5797 5793 5790 5786 5783 5780 5777 5775 5773 5770 5766 5763 5761 5757 5754 5750 5747 5745 5743 5742 5740 5739 5738 5738 5737 5737 5737 5736 5736 5737 5737 5737 5737 5737 5737 5737 5737 5738 5737 5737 5736 5736 5736 5736 5736 5735 5735 5736 5736 5736 5736 5736 5737 5738
5880 5879 5878 5877 5875 5874 5872 5869 5867 5865 5862 5859 5856 5853 5849 5846 5843 5840 5837 5834 5831 5828 5824 5821 5817 5814 5811 5807 5803 5800 5796 5793 5790 5786 5783 5780 5778 5776 5774 5771 5768 5766 5763 5760 5757 5754 5750 5747 5745 5743 5742 5740 5739 5738 5737 5737 5737 5736 5736 5736 5736 5736 5736 5736 5736 5736 5736 5736 5736 5735 5735 5735 5735 5734 5733 5733 5733 5733 5733 5733 5733 5734 5734 5735 5735
5877 5876 5875 5874 5872 5870 5868 5866 5863 5861 5858 5855 5852 5849 5846 5843 5840 5837 5834 5831 5827 5824 5821 5818 5814 5810 5807 5803 5800 5796 5793 5790 5786 5783 5781 5778 5776 5775 5773 5770 5768 5766 5763 5760 5757 5754 5751 5748 5746 5744 5743 5741 5740 5738 5737 5737 5737 5736 5736 5736 5736 5736 5736 5736 5736 5736 5736 5736 5735 5734 5734 5733 5733 5732 5731 5731 5731 5731 5731 5731 5731 5732 5732 5732 5733
5873 5872 5871 5870 5869 5867 5864 5862 5860 5857 5854 5851 5849 5845 5842 5839 5836 5833 5830 5827 5824 5821 5818 5815 5811 5807 5804 5800 5797 5793 5790 5787 5784 5781 5779 5777 5775 5774 5772 5770 5768 5765 5763 5760 5757 5755 5752 5749 5747 5745 5744 5742 5740 5739 5738 5738 5737 5737 5737 5737 5737 5737 5737 5737 5737 5736 5736 5736 5735 5734 5733 5732 5731 5731 5730 5730 5729 5729 5729 5729 5729 5729 5730 5731 5731
5869 5869 5868 5866 5864 5863 5861 5858 5856 5853 5850 5848 5845 5842 5839 5836 5833 5830 5827 5824 5821 5818 5815 5812 5809 5805 5801 5798 5795 5791 5788 5785 5782 5780 5778 5776 5775 5773 5771 5769 5767 5765 5762 5760 5758 5756 5753 5751 5748 5746 5745 5743 5742 5741 5740 5739 5739 5738 5738 5738 5738 5738 5738 5738 5738 5738 5737 5737 5736 5735 5734 5733 5732 5731 5730 5730 5729 5728 5727 5727 5727 5727 5728 5729 5729
5866 5865 5864 5862 5860 5859 5857 5855 5852 5850 5847 5844 5841 5838 5835 5832 5829 5827 5824 5821 5818 5816 5813 5810 5807 5803 5800 5797 5793 5790 5787 5784 5781 5779 5778 5776 5775 5773 5771 5769 5767 5765 5762 5761 5759 5757 5755 5752 5750 5748 5747 5745 5744 5743 5742 5741 5741 5741 5740 5740 5740 5740 5740 5740 5739 5739 5738 5737 5737 5736 5735 5734 5733 5732 5731 5730 5729 5729 5727 5727 5726 5726 5726 5727 5726
5862 5861 5860 5858 5857 5855 5853 5851 5849 5846 5843 5840 5837 5835 5832 5829 5826 5824 5821 5819 5816 5813 5811 5808 5805 5802 5799 5796 5793 5789 5785 5783 5781 5779 5777 5776 5774 5772 5770 5768 5766 5764 5762 5761 5759 5758 5756 5754 5752 5750 5748 5747 5746 5745 5744 5744 5743 5743 5742 5742 5742 5742 5741 5741 5740 5740 5739 5738 5737 5736 5735 5734 5733 5732 5732 5731 5730 5729 5728 5728 5727 5727 5726 5726 5726
5858 5857 5855 5854 5853 5851 5849 5847 5845 5843 5840 5837 5834 5831 5828 5826 5823 5821 5819 5816 5814 5811 5808 5806 5803 5801 5798 5796 5792 5789 5785 5783 5780 5779 5777 5776 5774 5772 5770 5768 5766 5764 5763 5761 5760 5758 5757 5755 5753 5752 5750 5749 5748 5747 5746 5746 5745 5745 5744 5744 5743 5743 5742 5741 5741 5740 5739 5738 5738 5737 5736 5735 5734 5733 5732 5731 5730 5730 5729 5728 5728 5728 5727 5727 5726
5854 5853 5852 5851 5849 5847 5845 5844 5841 5839 5836 5833 5831 5828 5826 5823 5821 5818 5816 5814 5811 5809 5806 5804 5802 5800 5797 5795 5792 5789 5786 5784 5782 5780 5779 5777 5775 5773 5771 5769 5767 5765 5764 5763 5761 5759 5758 5756 5755 5753 5752 5750 5749 5749 5748 5747 5747 5746 5745 5745 5744 5743 5743 5742 5742 5741 5740 5739 5738 5737 5736 5735 5735 5734 5733 5732 5731 5731 5730 5729 5729 5728 5728 5727 5727
5850 5849 5848 5847 5845 5844 5842 5840 5838 5835 5832 5830 5828 5825 5823 5820 5818 5816 5813 5811 5809 5806 5804 5802 5800 5799 5797 5794 5791 5789 5787 5786 5784 5783 5782 5780 5779 5777 5774 5771 5769 5767 5765 5764 5763 5761 5759 5758 5756 5755 5753 5752 5751 5750 5750 5749 5748 5748 5747 5746 5745 5745 5744 5744 5743 5742 5741 5740 5740 5739 5738 5737 5737 5736 5735 5734 5733 5732 5731 5731 5730 5729 5728 5728 5727
5846 5845 5845 5843 5842 5840 5839 5836 5834 5831 5829 5827 5825 5822 5820 5817 5815 5813 5811 5809 5807 5804 5803 5801 5800 5798 5796 5794 5792 5790 5789 5788 5787 5785 5784 5783 5781 5779 5776 5773 5770 5768 5767 5766 5764 5762 5761 5760 5759 5757 5756 5754 5753 5752 5752 5751 5750 5750 5749 5748 5747 5746 5746 5745 5745 5744 5743 5742 5741 5741 5740 5739 5738 5737 5736 5736 5735 5734 5733 5732 5731 5730 5729 5728 5728
5842 5842 5841 5839 5838 5837 5835 5833 5830 5828 5826 5824 5822 5819 5817 5814 5812 5811 5809 5807 5804 5803 5801 5800 5799 5797 5796 5794 5793 5791 5790 5789 5788 5787 5785 5784 5782 5780 5777 5775 5772 5770 5768 5767 5766 5764 5763 5762 5761 5760 5758 5757 5756 5754 5754 5753 5752 5752 5751 5750 5749 5748 5748 5747 5747 5746 5745 5744 5743 5743 5742 5741 5740 5739 5738 5737 5736 5735 5734 5733 5732 5731 5730 5729 5728
5839 5838 5837 5835 5834 5833 5831 5829 5827 5825 5823 5821 5819 5816 5814 5812 5810 5808 5806 5804 5802 5801 5800 5799 5798 5797 5796 5795 5794 5792 5791 5789 5788 5787 5786 5785 5783 5781 5779 5776 5774 5772 5770 5769 5768 5766 5765 5764 5763 5762 5760 5759 5758 5757 5756 5755 5754 5753 5752 5752 5751 5750 5750 5749 5748 5748 5747 5746 5745 5744 5744 5743 5742 5741 5740 5739 5738 5737 5736 5734 5733 5732 5731 5730 5729
5835 5834 5833 5832 5831 5829 5827 5825 5823 5822 5820 5818 5816 5813 5811 5809 5807 5806 5804 5802 5801 5800 5799 5799 5798 5797 5796 5795 5794 5792 5791 5790 5789 5787 5786 5785 5784 5782 5780 5777 5775 5774 5772 5771 5769 5768 5766 5765 5764 5763 5762 5761 5760 5759 5758 5757 5756 5755 5755 5754 5753 5753 5752 5751 5750 5750 5749 5748 5747 5746 5745 5744 5743 5742 5741 5740 5739 5737 5736 5735 5734 5733 5731 5730 5729
5832 5831 5830 5828 5827 5825 5823 5822 5820 5819 5817 5815 5813 5810 5808 5807 5805 5803 5801 5800 5799 5798 5798 5798 5797 5796 5796 5795 5793 5792 5791 5790 5789 5788 5786 5785 5784 5782 5780 5778 5776 5775 5773 5772 5771 5769 5768 5767 5766 5765 5764 5763 5762 5761 5760 5759 5758 5757 5757 5756 5755 5755 5754 5753 5752 5752 5751 5750 5749 5748 5747 5745 5744 5743 5741 5740 5739 5737 5736 5735 5734 5733 5731 5730 5729
5829 5827 5826 5824 5823 5821 5820 5819 5817 5816 5814 5812 5810 5808 5806 5804 5803 5801 5799 5798 5798 5797 5797 5797 5796 5796 5795 5794 5793 5792 5791 5790 5789 5788 5787 5785 5784 5782 5780 5778 5777 5775 5774 5773 5771 5770 5769 5768 5767 5766 5765 5765 5764 5763 5762 5761 5760 5759 5759 5758 5757 5756 5755 5754 5754 5753 5752 5751 5750 5748 5747 5746 5744 5743 5741 5740 5739 5737 5736 5735 5733 5732 5731 5730 5729
5825 5823 5822 5820 5819 5818 5817 5816 5814 5813 5811 5809 5807 5805 5803 5802 5800 5799 5798 5797 5796 5796 5796 5796 5796 5795 5795 5794 5793 5792 5791 5790 5789 5788 5786 5785 5784 5782 5780 5779 5777 5776 5775 5774 5772 5771 5770 5769 5769 5768 5767 5766 5766 5765 5764 5763 5762 5761 5760 5759 5758 5757 5756 5755 5754 5753 5752 5751 5750 5748 5747 5745 5744 5742 5741 5740 5738 5737 5736 5734 5733 5732 5730 5729 5728
5821 5819 5818 5817 5816 5815 5814 5813 5812 5810 5808 5806 5804 5803 5801 5800 5798 5797 5796 5795 5795 5795 5796 5796 5795 5795 5794 5793 5793 5792 5791 5790 5789 5788 5786 5785 5783 5782 5780 5779 5778 5777 5776 5775 5773 5772 5771 5771 5770 5769 5768 5767 5766 5765 5765 5764 5763 5762 5761 5760 5759 5758 5756 5755 5754 5753 5752 5751 5749 5748 5746 5745 5743 5742 5741 5739 5738 5737 5735 5734 5733 5731 5730 5729 5727
5817 5815 5814 5814 5813 5812 5811 5810 5809 5807 5805 5803 5802 5800 5799 5797 5796 5795 5794 5794 5794 5795 5795 5795 5795 5794 5794 5793 5792 5791 5790 5789 5788 5787 5786 5785 5783 5782 5780 5779 5778 5777 5776 5775 5774 5773 5772 5772 5771 5770 5769 5768 5767 5766 5765 5764 5763 5762 5761 5760 5759 5758 5756 5755 5754 5753 5751 5750 5749 5747 5746 5745 5743 5742 5740 5739 5738 5736 5735 5733 5732 5730 5729 5727 5726
5813 5812 5811 5810 5809 5809 5808 5807 5806 5804 5802 5801 5799 5798 5796 5795 5794 5793 5793 5793 5793 5794 5794 5794 5794 5794 5793 5793 5792 5791 5790 5789 5788 5787 5786 5784 5783 5782 5780 5780 5779 5778 5777 5776 5775 5774 5773 5772 5771 5770 5769 5768 5767 5767 5766 5765 5763 5762 5761 5760 5759 5758 5756 5755 5754 5753 5751 5750 5749 5747 5746 5744 5743 5741 5740 5738 5737 5735 5734 5732 5731 5729 5728 5726 5724
5809 5809 5808 5807 5806 5806 5805 5804 5803 5801 5800 5798 5797 5795 5794 5793 5792 5792 5792 5792 5792 5793 5793 5794 5794 5793 5793 5792 5792 5791 5790 5789 5788 5787 5785 5784 5783 5781 5780 5780 5779 5778 5777 5776 5775 5774 5773 5772 5772 5771 5770 5769 5768 5767 5766 5765 5763 5762 5761 5760 5759 5758 5756 5755 5754 5752 5751 5749 5748 5747 5745 5744 5742 5741 5739 5738 5736 5734 5733 5731 5730 5728 5727 5725 5723
5806 5806 5805 5804 5804 5803 5802 5801 5800 5799 5797 5795 5794 5793 5792 5791 5791 5790 5790 5791 5791 5792 5793 5793 5793 5793 5793 5792 5791 5791 5790 5788 5787 5786 5785 5784 5782 5781 5780 5780 5779 5778 5777 5776 5775 5774 5774 5773 5772 5771 5770 5769 5768 5767 5766 5765 5764 5762 5761 5760 5759 5757 5756 5754 5753 5752 5750 5749 5747 5746 5744 5743 5741 5740 5738 5737 5735 5734 5732 5730 5729 5727 5725 5723 5722
5803 5803 5802 5802 5801 5800 5799 5798 5797 5796 5794 5793 5792 5791 5790 5789 5789 5789 5789 5790 5790 5791 5792 5792 5792 5792 5792 5791 5791 5790 5789 5788 5787 5786 5784 5783 5782 5781 5780 5780 5779 5778 5778 5777 5776 5775 5774 5773 5772 5771 5770 5769 5768 5767 5766 5764 5763 5762 5761 5759 5758 5756 5755 5753 5752 5750 5749 5748 5746 5745 5743 5742 5740 5739 5737 5736 5734 5733 5731 5729 5727 5725 5724 5722 5720
5800 5800 5800 5799 5799 5798 5797 5796 5795 5793 5792 5790 5789 5789 5788 5788 5788 5788 5788 5789 5789 5790 5791 5791 5792 5792 5791 5791 5790 5789 5789 5787 5786 5785 5784 5783 5782 5781 5780 5780 5779 5779 5778 5777 5776 5775 5774 5773 5772 5771 5769 5768 5767 5766 5765 5764 5762 5761 5760 5758 5757 5755 5754 5752 5751 5749 5748 5747 5745 5744 5742 5741 5740 5738 5737 5735 5733 5731 5729 5728 5726 5724 5722 5720 5718
5797 5797 5797 5797 5797 5796 5794 5793 5792 5791 5790 5788 5787 5787 5786 5786 5787 5787 5787 5787 5788 5789 5790 5791 5791 5791 5790 5790 5789 5789 5788 5787 5786 5784 5783 5782 5782 5781 5780 5780 5779 5779 5778 5777 5776 5775 5773 5772 5771 5770 5769 5768 5767 5765 5764 5762 5761 5760 5758 5757 5755 5754 5752 5751 5750 5748 5747 5745 5744 5743 5741 5740 5738 5737 5735 5734 5732 5730 5728 5726 5724 5722 5720 5718 5716
5794 5795 5795 5795 5795 5793 5792 5791 5790 5789 5788 5787 5786 5785 5785 5785 5785 5786 5786 5787 5787 5788 5789 5790 5790 5790 5790 5789 5789 5788 5787 5786 5785 5784 5783 5782 5781 5781 5780 5780 5779 5778 5777 5776 5775 5774 5773 5772 5771 5769 5768 5767 5765 5764 5763 5761 5760 5759 5757 5756 5754 5753 5751 5750 5749 5747 5746 5744 5743 5741 5740 5739 5737 5736 5734 5732 5730 5728 5726 5724 5722 5720 5718 5716 5714
5792 5793 5793 5793 5792 5791 5791 5790 5789 5788 5787 5786 5784 5784 5784 5784 5784 5785 5786 5786 5787 5788 5789 5789 5789 5789 5789 5789 5788 5787 5787 5786 5785 5784 5783 5782 5781 5781 5780 5779 5779 5778 5777 5776 5775 5774 5772 5771 5770 5769 5767 5766 5764 5763 5762 5761 5759 5758 5756 5755 5753 5752 5750 5749 5747 5746 5745 5743 5741 5740 5739 5737 5735 5734 5732 5730 5728 5726 5724 5722 5720 5718 5716 5714 5711
5790 5790 5791 5791 5790 5790 5790 5789 5788 5788 5786 5785 5784 5783 5783 5784 5784 5785 5786 5786 5787 5788 5788 5788 5788 5788 5788 5788 5787 5787 5786 5786 5785 5784 5783 5782 5781 5780 5780 5779 5778 5777 5776 5775 5774 5773 5772 5770 5769 5768 5766 5765 5764 5762 5761 5760 5759 5757 5756 5754 5752 5751 5749 5748 5746 5745 5743 5742 5740 5738 5737 5735 5733 5732 5730 5728 5726 5724 5722 5720 5718 5716 5714 5711 5709
5788 5788 5788 5788 5788 5788 5789 5789 5788 5787 5786 5785 5784 5783 5783 5784 5784 5785 5786 5786 5787 5787 5787 5787 5787 5787 5787 5787 5787 5786 5786 5785 5784 5783 5782 5782 5781 5780 5779 5778 5778 5777 5776 5775 5773 5772 5771 5769 5768 5767 5765 5764 5763 5762 5760 5759 5758 5756 5754 5753 5751 5750 5748 5747 5745 5743 5742 5740 5738 5737 5735 5733 5732 5730 5728 5726 5724 5722 5720 5718 5716 5713 5711 5709 5706
5785 5785 5786 5786 5786 5787 5787 5788 5787 5786 5786 5785 5785 5784 5784 5784 5784 5785 5785 5786 5786 5786 5786 5786 5786 5786 5786 5786 5786 5786 5785 5784 5783 5783 5782 5781 5780 5779 5779 5778 5777 5776 5775 5774 5772 5771 5770 5769 5767 5766 5765 5763 5762 5761 5759 5758 5756 5755 5753 5752 5750 5748 5747 5745 5744 5742 5740 5739 5737 5735 5733 5732 5730 5728 5726 5724 5722 5720 5717 5715 5713 5710 5708 5705 5703
5783 5783 5783 5784 5784 5785 5786 5786 5786 5785 5785 5784 5784 5784 5784 5784 5783 5784 5784 5785 5785 5785 5785 5785 5785 5785 5785 5785 5785 5785 5784 5783 5782 5782 5781 5780 5780 5779 5778 5777 5776 5775 5774 5773 5772 5770 5769 5768 5766 5765 5764 5763 5761 5760 5758 5757 5755 5754 5752 5750 5749 5747 5745 5744 5742 5740 5739 5737 5735 5733 5731 5730 5728 5726 5724 5721 5719 5717 5715 5712 5710 5707 5705 5702 5700